When you browse on this site, cookies collect data to enhance your experience and personalize the content and advertising you see.
Visit our Privacy Policy to learn more. By continuing to use the site, you agree to this use of cookies and data.
  • In Schweiz
  • Länderverzeichnis
  • Für 7 Tage
  • Wassertemperatur
  • Satellitenkarten
  • Wetterkarte
  • Widgets
  • user-avatar
    Anmelden

    Stündliche Wetter Kukuevka

    Heute, 27 Juni, Donnerstag

    Zeit Temperatur Niederschläge Wind Luftdruck Luftfeuchtigkeit
    00:00 +17°C° 0 mm 3 m/S 741 mmHg 87%
    01:00 +16°C° 0.2 mm 2 m/S 741 mmHg 89%
    02:00 +16°C° 0.2 mm 2 m/S 740 mmHg 92%
    03:00 +16°C° 0.2 mm 1 m/S 740 mmHg 94%
    04:00 +16°C° 0.3 mm 1 m/S 739 mmHg 95%
    05:00 +16°C° 0.3 mm 1 m/S 739 mmHg 96%
    06:00 +16°C° 0.3 mm 1 m/S 738 mmHg 97%
    07:00 +18°C° 0.3 mm 1 m/S 738 mmHg 94%
    08:00 +19°C° 0.3 mm 1 m/S 737 mmHg 91%
    09:00 +20°C° 0.3 mm 1 m/S 737 mmHg 88%
    10:00 +19°C° 0.2 mm 2 m/S 736 mmHg 88%
    11:00 +20°C° 0.2 mm 2 m/S 735 mmHg 89%
    12:00 +20°C° 0.2 mm 2 m/S 735 mmHg 90%
    13:00 +19°C° 1.3 mm 3 m/S 734 mmHg 91%
    14:00 +19°C° 1.3 mm 3 m/S 733 mmHg 93%
    15:00 +19°C° 1.3 mm 3 m/S 732 mmHg 95%
    16:00 +19°C° 1.2 mm 4 m/S 731 mmHg 94%
    17:00 +20°C° 1.2 mm 5 m/S 730 mmHg 93%
    18:00 +20°C° 1.2 mm 7 m/S 729 mmHg 92%
    19:00 +20°C° 2 mm 6 m/S 728 mmHg 92%
    20:00 +20°C° 2 mm 5 m/S 727 mmHg 92%
    21:00 +20°C° 2 mm 4 m/S 726 mmHg 92%
    22:00 +19°C° 0 mm 4 m/S 726 mmHg 93%
    23:00 +19°C° 0 mm 4 m/S 725 mmHg 94%

    Morgen, 28 Juni, Freitag

    Zeit Temperatur Niederschläge Wind Luftdruck Luftfeuchtigkeit
    00:00 +19°C° 0 mm 5 m/S 724 mmHg 96%
    01:00 +17°C° 0 mm 5 m/S 724 mmHg 95%
    02:00 +17°C° 0 mm 5 m/S 724 mmHg 94%
    03:00 +17°C° 0 mm 6 m/S 724 mmHg 94%
    04:00 +16°C° 0 mm 6 m/S 724 mmHg 93%
    05:00 +16°C° 0 mm 6 m/S 724 mmHg 93%
    06:00 +15°C° 0 mm 7 m/S 723 mmHg 92%
    07:00 +15°C° 0.1 mm 6 m/S 724 mmHg 90%
    08:00 +15°C° 0.1 mm 6 m/S 724 mmHg 89%
    09:00 +15°C° 0.1 mm 6 m/S 724 mmHg 87%
    10:00 +15°C° 0.1 mm 6 m/S 724 mmHg 85%
    11:00 +15°C° 0.1 mm 7 m/S 723 mmHg 83%
    12:00 +15°C° 0.1 mm 7 m/S 723 mmHg 80%
    13:00 +15°C° 0.1 mm 7 m/S 723 mmHg 81%
    14:00 +15°C° 0.1 mm 7 m/S 723 mmHg 81%
    15:00 +15°C° 0.1 mm 6 m/S 723 mmHg 81%
    16:00 +15°C° 0.1 mm 6 m/S 723 mmHg 81%
    17:00 +14°C° 0.1 mm 6 m/S 723 mmHg 82%
    18:00 +14°C° 0.1 mm 5 m/S 723 mmHg 82%
    19:00 +14°C° 0.1 mm 5 m/S 723 mmHg 84%
    20:00 +13°C° 0.1 mm 4 m/S 723 mmHg 87%
    21:00 +12°C° 0.1 mm 3 m/S 724 mmHg 90%
    22:00 +12°C° 0.2 mm 4 m/S 724 mmHg 91%
    23:00 +10°C° 0.2 mm 5 m/S 724 mmHg 92%

    übermorgen, 29 Juni, Samstag

    Zeit Temperatur Niederschläge Wind Luftdruck Luftfeuchtigkeit
    00:00 +9°C° 0.2 mm 5 m/S 724 mmHg 94%
    01:00 +9°C° 0.3 mm 6 m/S 724 mmHg 94%
    02:00 +9°C° 0.3 mm 6 m/S 724 mmHg 94%
    03:00 +9°C° 0.3 mm 7 m/S 724 mmHg 94%
    04:00 +9°C° 0.3 mm 7 m/S 724 mmHg 94%
    05:00 +9°C° 0.3 mm 7 m/S 725 mmHg 94%
    06:00 +9°C° 0.3 mm 7 m/S 725 mmHg 94%
    07:00 +9°C° 0.4 mm 8 m/S 725 mmHg 94%
    08:00 +9°C° 0.4 mm 8 m/S 726 mmHg 93%
    09:00 +7°C° 0.4 mm 8 m/S 726 mmHg 93%
    10:00 +6°C° 0.6 mm 8 m/S 727 mmHg 93%
    11:00 +6°C° 0.6 mm 8 m/S 728 mmHg 93%
    12:00 +5°C° 0.6 mm 7 m/S 728 mmHg 93%
    13:00 +5°C° 0.5 mm 7 m/S 729 mmHg 93%
    14:00 +5°C° 0.5 mm 7 m/S 730 mmHg 93%
    15:00 +5°C° 0.5 mm 7 m/S 730 mmHg 93%
    16:00 +5°C° 0.5 mm 7 m/S 731 mmHg 93%
    17:00 +5°C° 0.5 mm 6 m/S 731 mmHg 93%
    18:00 +5°C° 0.5 mm 6 m/S 731 mmHg 94%
    19:00 +5°C° 0.7 mm 6 m/S 732 mmHg 94%
    20:00 +6°C° 0.7 mm 5 m/S 732 mmHg 95%
    21:00 +6°C° 0.7 mm 5 m/S 732 mmHg 95%
    22:00 +6°C° 0.6 mm 5 m/S 733 mmHg 95%
    23:00 +7°C° 0.6 mm 4 m/S 733 mmHg 94%

    30 Juni, Sonntag

    Zeit Temperatur Niederschläge Wind Luftdruck Luftfeuchtigkeit
    00:00 +7°C° 0.6 mm 4 m/S 733 mmHg 94%
    01:00 +7°C° 0.3 mm 4 m/S 733 mmHg 93%
    02:00 +7°C° 0.3 mm 4 m/S 733 mmHg 92%
    03:00 +7°C° 0.3 mm 5 m/S 733 mmHg 91%
    04:00 +7°C° 0.3 mm 4 m/S 733 mmHg 91%
    05:00 +7°C° 0.3 mm 4 m/S 734 mmHg 92%
    06:00 +8°C° 0.3 mm 3 m/S 734 mmHg 92%
    07:00 +9°C° 0.1 mm 3 m/S 734 mmHg 88%
    08:00 +10°C° 0.1 mm 4 m/S 735 mmHg 85%
    09:00 +11°C° 0.1 mm 4 m/S 735 mmHg 82%
    10:00 +13°C° 0 mm 5 m/S 735 mmHg 74%
    11:00 +14°C° 0 mm 5 m/S 736 mmHg 67%
    12:00 +16°C° 0 mm 6 m/S 736 mmHg 60%
    13:00 +17°C° 0 mm 6 m/S 736 mmHg 59%
    14:00 +17°C° 0 mm 6 m/S 736 mmHg 59%
    15:00 +17°C° 0 mm 6 m/S 736 mmHg 58%
    16:00 +17°C° 0 mm 5 m/S 736 mmHg 61%
    17:00 +18°C° 0 mm 4 m/S 736 mmHg 65%
    18:00 +18°C° 0 mm 4 m/S 737 mmHg 68%
    19:00 +16°C° 0 mm 3 m/S 737 mmHg 71%
    20:00 +14°C° 0 mm 3 m/S 737 mmHg 74%
    21:00 +13°C° 0 mm 2 m/S 737 mmHg 76%
    22:00 +13°C° 0 mm 2 m/S 737 mmHg 78%
    23:00 +12°C° 0 mm 2 m/S 737 mmHg 80%

    1 Juli, Montag

    Zeit Temperatur Niederschläge Wind Luftdruck Luftfeuchtigkeit
    00:00 +12°C° 0 mm 2 m/S 737 mmHg 81%
    01:00 +12°C° 0 mm 2 m/S 737 mmHg 84%
    02:00 +10°C° 0 mm 2 m/S 737 mmHg 88%
    03:00 +10°C° 0 mm 2 m/S 737 mmHg 91%
    04:00 +12°C° 0 mm 2 m/S 738 mmHg 90%
    05:00 +12°C° 0 mm 2 m/S 738 mmHg 90%
    06:00 +13°C° 0 mm 2 m/S 738 mmHg 90%
    07:00 +14°C° 0 mm 2 m/S 738 mmHg 85%
    08:00 +16°C° 0 mm 2 m/S 738 mmHg 80%
    09:00 +17°C° 0 mm 3 m/S 738 mmHg 76%
    10:00 +18°C° 0.1 mm 2 m/S 738 mmHg 72%
    11:00 +19°C° 0.1 mm 2 m/S 738 mmHg 68%
    12:00 +20°C° 0.1 mm 2 m/S 738 mmHg 64%
    13:00 +20°C° 0.1 mm 2 m/S 738 mmHg 62%
    14:00 +21°C° 0.1 mm 2 m/S 737 mmHg 60%
    15:00 +21°C° 0.1 mm 2 m/S 737 mmHg 58%
    16:00 +21°C° 0 mm 2 m/S 737 mmHg 59%
    17:00 +22°C° 0 mm 1 m/S 737 mmHg 60%
    18:00 +22°C° 0 mm 1 m/S 737 mmHg 61%
    19:00 +20°C° 0 mm 1 m/S 737 mmHg 66%
    20:00 +18°C° 0 mm 1 m/S 737 mmHg 71%
    21:00 +16°C° 0 mm 1 m/S 737 mmHg 76%
    22:00 +15°C° 0 mm 1 m/S 736 mmHg 78%
    23:00 +14°C° 0 mm 1 m/S 736 mmHg 79%

    2 Juli, Dienstag

    Zeit Temperatur Niederschläge Wind Luftdruck Luftfeuchtigkeit
    00:00 +14°C° 0 mm 2 m/S 736 mmHg 81%
    01:00 +14°C° 0 mm 2 m/S 736 mmHg 81%
    02:00 +13°C° 0 mm 2 m/S 735 mmHg 82%
    03:00 +13°C° 0 mm 2 m/S 735 mmHg 82%
    04:00 +14°C° 0 mm 2 m/S 735 mmHg 83%
    05:00 +14°C° 0 mm 2 m/S 735 mmHg 83%
    06:00 +15°C° 0 mm 2 m/S 734 mmHg 84%
    07:00 +16°C° 0 mm 3 m/S 734 mmHg 82%
    08:00 +18°C° 0 mm 3 m/S 734 mmHg 80%
    09:00 +20°C° 0 mm 3 m/S 734 mmHg 78%
    10:00 +21°C° 0 mm 3 m/S 733 mmHg 76%
    11:00 +24°C° 0 mm 3 m/S 733 mmHg 73%
    12:00 +25°C° 0 mm 3 m/S 733 mmHg 71%
    13:00 +25°C° 1.2 mm 3 m/S 733 mmHg 74%
    14:00 +25°C° 1.2 mm 3 m/S 732 mmHg 76%
    15:00 +25°C° 1.2 mm 3 m/S 732 mmHg 79%
    16:00 +25°C° 0.6 mm 4 m/S 732 mmHg 80%
    17:00 +23°C° 0.6 mm 4 m/S 731 mmHg 81%
    18:00 +23°C° 0.6 mm 4 m/S 731 mmHg 83%
    19:00 +22°C° 0.2 mm 4 m/S 731 mmHg 85%
    20:00 +20°C° 0.2 mm 4 m/S 732 mmHg 88%
    21:00 +19°C° 0.2 mm 4 m/S 732 mmHg 91%
    22:00 +18°C° 0 mm 4 m/S 732 mmHg 91%
    23:00 +17°C° 0 mm 4 m/S 732 mmHg 90%
    Mehr zeigen